�N����,����,�~����,�C��,���x,�C��,����,���ϕ���,�ő�u�ԕ���,�ő厞����,���˗�,�I�_���x,�n�����x,�ő啗���N��,DTYPE
"23/05/11","00:10",0.0,12.8,65.2,1011.6,336.5,2.1,2.9,339.7,0.00,6.5,17.0,"00:05:24",1
"23/05/11","00:20",0.0,12.6,65.2,1012.1,339.0,2.0,2.9,332.3,0.00,6.3,17.0,"00:13:00",1
"23/05/11","00:30",0.0,13.0,64.7,1012.1,338.6,1.6,2.6,306.0,0.00,6.6,16.7,"00:29:40",1
"23/05/11","00:40",0.0,12.5,66.0,1012.3,317.6,1.7,2.5,314.0,0.00,6.4,16.7,"00:30:26",1
"23/05/11","00:50",0.0,12.3,67.2,1012.1,322.9,1.8,2.7,310.2,0.00,6.4,16.6,"00:45:36",1
"23/05/11","01:00",0.0,11.9,69.1,1012.3,314.4,2.3,2.8,321.0,0.00,6.5,16.6,"00:52:02",1
"23/05/11","01:10",0.0,11.9,70.8,1012.1,323.7,2.2,3.6,330.3,0.00,6.8,16.5,"01:01:28",1
"23/05/11","01:20",0.0,12.6,71.3,1012.3,309.3,2.5,3.3,305.1,0.00,7.6,16.7,"01:13:56",1
"23/05/11","01:30",0.0,12.7,71.9,1012.1,328.6,3.0,4.1,328.3,0.00,7.8,16.5,"01:28:52",1
"23/05/11","01:40",0.0,13.2,71.9,1012.1,325.9,3.4,4.2,330.1,0.00,8.3,16.4,"01:34:58",1
"23/05/11","01:50",0.0,13.4,72.1,1012.3,329.3,3.4,4.8,334.3,0.00,8.5,16.4,"01:46:12",1
"23/05/11","02:00",0.0,13.6,72.3,1012.3,326.9,3.6,5.9,332.3,0.00,8.8,16.4,"01:50:58",1
"23/05/11","02:10",0.0,13.7,72.5,1012.1,327.3,3.6,5.1,336.9,0.00,8.9,16.2,"02:07:08",1
"23/05/11","02:20",0.0,13.6,73.0,1011.9,330.7,3.5,5.2,326.9,0.00,8.9,16.3,"02:16:38",1
"23/05/11","02:30",0.0,13.7,73.3,1012.1,330.8,3.9,5.1,330.0,0.00,9.1,16.1,"02:22:52",1
"23/05/11","02:40",0.0,13.6,74.0,1011.9,332.0,3.7,5.0,337.5,0.00,9.1,16.1,"02:33:42",1
"23/05/11","02:50",0.0,13.6,74.7,1011.6,333.6,3.6,6.0,344.9,0.00,9.2,16.0,"02:48:44",1
"23/05/11","03:00",0.0,13.5,75.2,1011.9,332.4,3.4,5.6,336.9,0.00,9.2,16.1,"02:58:42",1
"23/05/11","03:10",0.0,13.6,75.5,1011.9,327.9,3.7,5.2,311.5,0.00,9.4,16.0,"03:08:10",1
"23/05/11","03:20",0.0,13.7,75.9,1012.1,333.6,3.4,6.2,329.6,0.00,9.6,16.2,"03:15:30",1
"23/05/11","03:30",0.0,13.5,76.7,1011.9,333.0,3.1,5.0,342.9,0.00,9.5,16.2,"03:22:18",1
"23/05/11","03:40",0.0,13.4,77.7,1011.9,328.5,3.5,5.6,351.6,0.00,9.6,16.1,"03:35:00",1
"23/05/11","03:50",0.0,13.3,78.3,1011.9,330.1,3.5,5.7,331.6,0.00,9.6,16.0,"03:43:14",1
"23/05/11","04:00",0.0,13.2,78.8,1011.6,325.7,3.5,5.9,331.6,0.00,9.6,16.0,"03:56:46",1
"23/05/11","04:10",0.0,13.1,79.4,1011.6,329.4,3.7,5.7,342.6,0.00,9.7,16.1,"04:00:34",1
"23/05/11","04:20",0.0,12.9,80.1,1011.9,328.5,3.0,4.3,334.8,0.00,9.6,15.8,"04:13:24",1
"23/05/11","04:30",0.0,12.8,80.9,1012.1,323.1,3.2,5.7,344.9,0.00,9.6,16.0,"04:28:26",1
"23/05/11","04:40",0.0,12.8,81.3,1012.3,320.3,3.5,5.4,321.5,0.00,9.7,15.9,"04:38:44",1
"23/05/11","04:50",0.0,12.7,81.5,1012.3,314.0,2.7,5.0,320.4,0.00,9.7,15.9,"04:42:04",1
"23/05/11","05:00",0.0,12.3,81.9,1012.3,306.8,1.8,3.6,311.5,0.00,9.3,15.9,"04:53:04",1
"23/05/11","05:10",0.0,12.2,82.4,1012.6,305.7,2.1,4.0,338.0,0.00,9.3,15.8,"05:08:18",1
"23/05/11","05:20",0.0,12.2,82.4,1012.3,316.1,2.6,3.9,322.4,0.00,9.3,15.7,"05:15:30",1
"23/05/11","05:30",0.0,12.1,82.3,1012.6,307.2,2.2,3.1,290.1,0.00,9.2,15.9,"05:20:36",1
"23/05/11","05:40",0.0,12.2,82.5,1012.8,322.2,3.4,4.9,342.1,0.00,9.4,15.7,"05:33:40",1
"23/05/11","05:50",0.0,12.1,82.7,1013.0,299.4,2.7,3.9,330.7,0.00,9.3,15.8,"05:41:34",1
"23/05/11","06:00",0.0,11.9,82.5,1012.8,304.7,3.0,4.2,308.4,0.00,9.1,15.9,"05:56:06",1
"23/05/11","06:10",0.0,11.8,82.2,1013.0,320.3,1.5,2.6,289.4,0.00,8.9,15.6,"06:00:08",1
"23/05/11","06:20",0.0,11.8,81.7,1013.0,323.9,1.2,2.1,306.1,0.00,8.8,15.7,"06:19:50",1
"23/05/11","06:30",0.0,12.0,80.9,1013.0,328.9,2.0,2.7,334.6,0.00,8.9,15.7,"06:26:06",1
"23/05/11","06:40",0.0,11.9,80.5,1013.3,328.0,2.0,2.6,324.9,0.01,8.7,15.7,"06:30:58",1
"23/05/11","06:50",0.0,12.2,80.1,1013.3,332.3,1.3,2.0,327.3,0.03,8.9,15.7,"06:40:38",1
"23/05/11","07:00",0.0,12.9,79.5,1013.8,326.7,1.6,3.9,334.3,0.05,9.5,15.5,"06:59:54",1
"23/05/11","07:10",0.0,13.5,77.6,1013.8,324.2,2.2,3.2,335.2,0.07,9.7,15.6,"07:09:20",1
"23/05/11","07:20",0.0,14.0,75.7,1013.8,324.8,3.1,4.3,314.0,0.08,9.8,15.5,"07:16:48",1
"23/05/11","07:30",0.0,14.6,74.1,1013.8,334.1,2.6,4.5,335.9,0.10,10.1,15.5,"07:25:32",1
"23/05/11","07:40",0.0,14.9,72.6,1014.2,331.1,2.6,5.0,339.9,0.13,10.1,15.6,"07:36:24",1
"23/05/11","07:50",0.0,15.2,71.6,1014.5,328.4,2.6,5.4,346.3,0.15,10.1,15.4,"07:48:00",1
"23/05/11","08:00",0.0,15.8,70.0,1014.2,333.3,2.3,4.0,327.8,0.17,10.4,15.5,"07:59:12",1
"23/05/11","08:10",0.0,16.7,67.4,1014.2,344.6,1.5,3.2,341.7,0.20,10.7,15.7,"08:01:44",1
"23/05/11","08:20",0.0,17.9,64.3,1014.5,353.6,1.0,2.2,343.8,0.23,11.1,15.6,"08:10:40",1
"23/05/11","08:30",0.0,18.3,60.3,1014.2,112.8,0.6,1.3,96.1,0.25,10.5,15.7,"08:24:16",1
"23/05/11","08:40",0.0,19.0,60.0,1014.2,36.6,0.5,1.6,113.2,0.28,11.1,15.7,"08:30:16",1
"23/05/11","08:50",0.0,19.7,55.5,1014.0,67.7,0.8,1.8,352.0,0.30,10.6,15.5,"08:42:32",1
"23/05/11","09:00",0.0,19.8,49.4,1013.8,52.6,0.6,2.4,122.4,0.33,8.9,15.5,"08:58:16",1
"23/05/11","09:10",0.0,20.2,50.9,1014.0,244.5,0.7,1.4,250.8,0.35,9.8,15.8,"09:04:24",1
"23/05/11","09:20",0.0,20.6,46.6,1013.5,314.9,0.8,2.0,351.6,0.38,8.8,15.7,"09:13:52",1
"23/05/11","09:30",0.0,20.9,46.0,1013.3,179.7,1.0,3.5,105.1,0.40,8.9,15.7,"09:28:16",1
"23/05/11","09:40",0.0,20.9,45.7,1013.8,180.7,1.3,2.7,191.8,0.42,8.8,15.6,"09:38:40",1
"23/05/11","09:50",0.0,21.5,43.9,1013.3,137.7,1.2,3.2,134.8,0.44,8.8,15.8,"09:47:52",1
"23/05/11","10:00",0.0,21.8,44.0,1013.5,161.8,1.0,2.9,146.7,0.46,9.1,15.8,"09:55:12",1
"23/05/11","10:10",0.0,21.8,37.8,1013.5,238.6,1.8,4.4,265.5,0.48,6.8,15.7,"10:07:20",1
"23/05/11","10:20",0.0,22.0,35.4,1013.8,353.2,2.2,5.4,350.1,0.49,6.1,15.8,"10:15:04",1
"23/05/11","10:30",0.0,22.0,36.3,1013.5,352.7,2.8,6.3,348.1,0.51,6.4,15.9,"10:23:52",1
"23/05/11","10:40",0.0,22.2,36.4,1014.0,351.0,3.1,6.4,342.7,0.53,6.6,15.9,"10:31:36",1
"23/05/11","10:50",0.0,22.4,35.5,1013.8,354.0,3.1,5.6,347.5,0.54,6.4,16.1,"10:41:12",1
"23/05/11","11:00",0.0,22.1,35.0,1014.0,339.2,3.4,5.7,340.2,0.56,6.0,16.0,"10:51:04",1
"23/05/11","11:10",0.0,22.5,31.5,1013.8,359.3,2.5,5.7,326.7,0.57,4.8,16.2,"11:08:00",1
"23/05/11","11:20",0.0,22.8,32.4,1013.8,352.5,2.6,6.3,348.4,0.58,5.5,16.5,"11:17:44",1
"23/05/11","11:30",0.0,22.8,33.8,1013.5,3.0,2.8,5.4,20.4,0.59,6.1,16.5,"11:20:56",1
"23/05/11","11:40",0.0,23.3,33.1,1013.8,355.6,2.1,4.3,350.0,0.59,6.2,16.7,"11:30:16",1
"23/05/11","11:50",0.0,23.0,33.5,1013.3,348.3,2.7,5.6,349.5,0.60,6.1,16.5,"11:49:36",1
"23/05/11","12:00",0.0,22.4,36.1,1013.3,339.9,4.5,8.7,351.0,0.60,6.7,16.3,"11:58:32",1
"23/05/11","12:10",0.0,22.4,33.4,1013.3,345.3,4.1,8.5,348.2,0.61,5.6,16.6,"12:04:16",1
"23/05/11","12:20",0.0,22.6,33.1,1013.5,343.7,4.1,7.3,346.6,0.61,5.6,16.7,"12:12:16",1
"23/05/11","12:30",0.0,22.8,30.0,1013.3,355.6,3.2,7.7,339.6,0.61,4.4,16.8,"12:29:28",1
"23/05/11","12:40",0.0,23.5,30.5,1013.3,4.5,1.8,6.0,347.7,0.62,5.2,16.9,"12:36:40",1
"23/05/11","12:50",0.0,23.2,32.2,1013.3,338.3,3.0,6.5,326.0,0.62,5.7,16.9,"12:42:48",1
"23/05/11","13:00",0.0,23.6,34.3,1013.3,351.4,2.2,6.7,342.4,0.62,7.0,17.1,"12:58:48",1
"23/05/11","13:10",0.0,23.4,32.9,1013.0,349.0,2.7,5.5,35.9,0.62,6.2,17.0,"13:08:40",1
"23/05/11","13:20",0.0,23.6,29.1,1013.0,344.2,2.6,6.2,351.2,0.61,4.6,17.0,"13:10:48",1
"23/05/11","13:30",0.0,22.8,29.1,1012.8,343.9,3.6,7.5,334.6,0.61,3.9,17.1,"13:22:00",1
"23/05/11","13:40",0.0,22.6,27.3,1013.0,339.9,3.6,7.7,327.3,0.60,2.9,17.4,"13:36:40",1
"23/05/11","13:50",0.0,22.9,25.9,1012.8,358.4,2.8,9.0,55.4,0.59,2.4,17.3,"13:49:36",1
"23/05/11","14:00",0.0,22.7,27.8,1012.6,343.8,4.1,9.8,348.8,0.59,3.2,17.3,"13:54:08",1
"23/05/11","14:10",0.0,22.7,26.0,1012.1,321.2,3.7,7.0,336.0,0.58,2.3,17.2,"14:05:08",1
"23/05/11","14:20",0.0,22.5,26.7,1012.3,317.2,4.2,8.0,347.2,0.57,2.5,17.4,"14:18:56",1
"23/05/11","14:30",0.0,22.7,25.8,1012.3,326.5,4.9,8.5,343.6,0.55,2.2,17.7,"14:22:16",1
"23/05/11","14:40",0.0,23.2,26.4,1012.3,329.7,3.7,7.3,330.5,0.54,2.9,17.7,"14:33:52",1
"23/05/11","14:50",0.0,22.7,27.2,1012.3,334.0,4.2,8.2,337.6,0.52,2.9,17.6,"14:43:44",1
"23/05/11","15:00",0.0,23.0,26.1,1012.3,356.4,3.7,7.8,352.3,0.51,2.6,17.5,"14:50:40",1
"23/05/11","15:10",0.0,23.1,26.1,1011.9,0.1,3.0,8.0,9.1,0.49,2.7,17.8,"15:06:32",1
"23/05/11","15:20",0.0,23.1,26.8,1012.1,348.9,3.5,7.9,341.4,0.47,3.0,17.9,"15:11:36",1
"23/05/11","15:30",0.0,22.9,28.2,1011.6,352.8,3.1,6.0,338.3,0.45,3.6,17.9,"15:27:20",1
"23/05/11","15:40",0.0,23.0,24.9,1011.9,351.5,3.0,6.6,346.2,0.42,1.9,17.7,"15:36:32",1
"23/05/11","15:50",0.0,22.7,27.8,1011.6,347.7,3.7,7.3,341.1,0.40,3.2,18.2,"15:48:48",1
"23/05/11","16:00",0.0,22.7,25.5,1011.4,339.1,4.7,8.2,336.1,0.38,2.0,18.1,"15:53:44",1
"23/05/11","16:10",0.0,23.0,26.2,1011.6,341.4,3.5,7.3,311.8,0.36,2.6,18.1,"16:01:12",1
"23/05/11","16:20",0.0,22.4,26.5,1011.6,331.7,4.7,7.9,346.5,0.34,2.3,18.1,"16:17:44",1
"23/05/11","16:30",0.0,22.3,24.0,1011.6,333.2,4.1,7.4,341.6,0.32,0.8,18.2,"16:29:36",1
"23/05/11","16:40",0.0,22.2,26.6,1011.9,340.8,4.6,7.5,335.8,0.29,2.2,18.0,"16:39:28",1
"23/05/11","16:50",0.0,22.3,26.0,1011.6,334.8,4.0,7.5,337.5,0.27,1.9,18.2,"16:47:44",1
"23/05/11","17:00",0.0,22.4,28.3,1011.6,340.9,3.1,6.6,329.7,0.24,3.2,18.1,"16:57:04",1
"23/05/11","17:10",0.0,21.9,29.6,1011.9,344.0,4.0,6.6,341.5,0.22,3.4,18.2,"17:00:02",1
"23/05/11","17:20",0.0,21.7,29.7,1011.6,340.5,3.6,7.1,333.8,0.19,3.3,18.0,"17:11:44",1
"23/05/11","17:30",0.0,21.7,33.0,1011.6,340.3,2.8,6.2,321.3,0.17,4.8,18.2,"17:20:32",1
"23/05/11","17:40",0.0,21.0,31.2,1011.6,337.4,3.6,6.6,338.4,0.14,3.4,18.3,"17:33:20",1
"23/05/11","17:50",0.0,20.9,29.3,1012.6,349.4,2.7,6.0,348.4,0.12,2.4,18.3,"17:48:48",1
"23/05/11","18:00",0.0,20.4,26.6,1012.3,2.9,2.7,6.6,336.9,0.10,0.6,18.3,"17:56:48",1
"23/05/11","18:10",0.0,20.1,29.7,1012.6,355.6,2.3,5.1,338.1,0.04,1.9,18.2,"18:02:00",1
"23/05/11","18:20",0.0,19.8,31.6,1012.3,343.0,2.6,6.6,328.9,0.01,2.5,17.9,"18:18:48",1
"23/05/11","18:30",0.0,19.0,30.3,1012.6,331.8,3.5,7.2,331.9,0.01,1.2,18.3,"18:26:56",1
"23/05/11","18:40",0.0,18.5,31.0,1012.8,322.2,3.0,5.9,327.7,0.01,1.1,18.4,"18:37:36",1
"23/05/11","18:50",0.0,18.3,32.0,1013.0,324.6,2.8,5.1,308.0,0.00,1.4,18.2,"18:45:20",1
"23/05/11","19:00",0.0,18.0,34.0,1013.0,323.7,2.2,3.7,339.2,0.00,2.0,18.0,"18:53:12",1
"23/05/11","19:10",0.0,17.6,35.2,1013.0,327.4,3.4,5.5,322.2,0.00,2.1,18.1,"19:01:20",1
"23/05/11","19:20",0.0,17.2,35.5,1013.0,314.4,2.7,4.2,336.9,0.00,1.9,18.2,"19:13:28",1
"23/05/11","19:30",0.0,17.0,37.8,1013.5,303.2,1.6,3.2,306.5,0.00,2.6,17.8,"19:21:52",1
"23/05/11","19:40",0.0,16.2,40.1,1013.5,350.0,1.1,2.4,347.3,0.00,2.7,17.8,"19:38:30",1
"23/05/11","19:50",0.0,16.0,39.5,1013.5,18.0,0.8,3.1,344.2,0.00,2.3,18.0,"19:47:52",1
"23/05/11","20:00",0.0,16.1,40.6,1014.0,348.7,1.6,3.5,348.5,0.00,2.8,17.8,"19:58:06",1
"23/05/11","20:10",0.0,15.3,45.2,1013.8,343.7,2.2,4.0,341.9,0.00,3.5,17.8,"20:09:12",1
"23/05/11","20:20",0.0,15.1,47.0,1014.0,336.5,2.8,5.5,341.1,0.00,3.9,17.7,"20:17:50",1
"23/05/11","20:30",0.0,14.8,48.1,1014.0,334.5,2.8,5.0,336.0,0.00,4.0,17.6,"20:23:34",1
"23/05/11","20:40",0.0,14.2,51.1,1014.0,329.7,3.0,5.7,314.9,0.00,4.3,17.7,"20:38:52",1
"23/05/11","20:50",0.0,13.7,53.7,1014.2,323.6,3.2,5.1,329.9,0.00,4.5,17.6,"20:42:36",1
"23/05/11","21:00",0.0,13.5,55.3,1014.2,325.1,2.7,5.2,338.6,0.00,4.8,17.6,"20:51:36",1
"23/05/11","21:10",0.0,13.5,55.5,1014.7,307.5,3.5,5.2,321.3,0.00,4.8,17.5,"21:05:58",1
"23/05/11","21:20",0.0,13.3,56.0,1014.7,305.4,2.3,4.1,290.2,0.00,4.8,17.3,"21:10:28",1
"23/05/11","21:30",0.0,13.1,56.7,1014.7,313.2,3.2,4.8,336.5,0.00,4.7,17.3,"21:26:22",1
"23/05/11","21:40",0.0,13.3,56.7,1014.7,316.2,4.1,5.9,321.5,0.00,4.9,17.4,"21:36:12",1
"23/05/11","21:50",0.0,13.3,56.6,1014.7,312.1,4.4,7.0,326.9,0.00,4.9,17.3,"21:43:42",1
"23/05/11","22:00",0.0,13.1,57.3,1014.7,302.1,3.4,6.0,331.2,0.00,4.9,17.2,"21:54:10",1
"23/05/11","22:10",0.0,12.9,58.0,1014.9,296.2,3.6,5.4,310.5,0.00,4.9,17.0,"22:06:30",1
"23/05/11","22:20",0.0,12.8,58.4,1014.7,296.7,3.2,7.0,318.8,0.00,4.9,17.2,"22:10:16",1
"23/05/11","22:30",0.0,12.7,58.6,1014.9,299.8,2.8,5.2,321.2,0.00,4.8,17.0,"22:27:38",1
"23/05/11","22:40",0.0,12.5,58.9,1015.2,318.1,2.8,5.5,326.4,0.00,4.7,17.2,"22:34:04",1
"23/05/11","22:50",0.0,12.3,59.6,1015.2,309.9,2.7,5.5,321.9,0.00,4.7,17.1,"22:48:40",1
"23/05/11","23:00",0.0,12.2,60.4,1015.4,321.1,3.5,5.4,313.8,0.00,4.8,16.8,"22:56:38",1
"23/05/11","23:10",0.0,12.0,61.0,1015.2,308.7,2.0,2.9,331.1,0.00,4.8,16.8,"23:01:06",1
"23/05/11","23:20",0.0,12.2,60.5,1015.2,295.5,2.7,4.4,296.1,0.00,4.8,16.7,"23:13:34",1
"23/05/11","23:30",0.0,12.0,61.7,1015.4,302.7,2.1,3.3,309.8,0.00,4.9,17.0,"23:28:28",1
"23/05/11","23:40",0.0,11.9,63.3,1015.4,318.0,1.8,2.9,329.4,0.00,5.2,16.7,"23:30:24",1
"23/05/11","23:50",0.0,11.9,64.1,1015.2,342.8,1.7,2.8,342.3,0.00,5.4,16.6,"23:49:40",1
"23/05/11","24:00",0.0,11.9,64.4,1015.6,346.2,2.0,3.2,341.8,0.00,5.4,16.6,"23:59:34",1
